AO-07 1 07530U 74089B 23166.52435525 -.00000037 00000-0 57488-4 0 9999 2 07530 101.9465 153.1900 0012656 67.4426 54.3177 12.53664824222960 UO-11 1 14781U 84021B 23166.50780480 .00001458 00000-0 17732-3 0 9997 2 14781 97.6570 143.5032 0007528 196.7392 163.3576 14.84900687 93891 AO-16 1 20439U 90005D 23166.57562184 .00000181 00000-0 82846-4 0 9990 2 20439 98.8826 156.7649 0010247 202.9185 270.1660 14.33109661744674 LO-19 1 20442U 90005G 23166.49546549 .00000169 00000-0 78109-4 0 9995 2 20442 98.8434 142.9748 0011670 178.1932 181.9295 14.33263469745104 HUBBLE 1 20580U 90037B 23166.62268743 .00003820 00000-0 19897-3 0 9990 2 20580 28.4696 278.4171 0002553 11.9722 107.5828 15.13266332621225 MET-2/21 1 22782U 93055A 23166.32085733 .00000022 00000-0 66506-5 0 9994 2 22782 82.5496 86.2475 0023486 51.3753 62.3586 13.83886580504195 AO-27 1 22825U 93061C 23166.59908083 .00000136 00000-0 69993-4 0 9998 2 22825 98.8406 209.4641 0009534 75.2593 284.9645 14.30309253550068 IO-26 1 22826U 93061D 23166.60291044 .00000156 00000-0 77187-4 0 9999 2 22826 98.8353 209.3312 0009953 62.4562 297.7630 14.30670462550332 FO-29 1 24278U 96046B 23166.49009742 .00000031 00000-0 64484-4 0 9995 2 24278 98.5280 145.2758 0351253 61.3836 302.2165 13.53146443324704 NOAA-15 1 25338U 98030A 23166.75384479 .00000267 00000-0 12939-3 0 9998 2 25338 98.6052 195.8353 0009503 323.5077 36.5454 14.26333667305052 GO-32 1 25397U 98043D 23166.46363398 .00000091 00000-0 59777-4 0 9999 2 25397 98.8686 123.9047 0002175 115.8433 244.2970 14.23878639295082 ISS 1 25544U 98067A 23166.78959613 .00011831 00000-0 20910-3 0 9995 2 25544 51.6419 335.4478 0005415 84.4531 56.4383 15.50781753401570 NO-44 1 26931U 01043C 23166.52317866 .00000161 00000-0 92650-4 0 9999 2 26931 67.0497 201.1221 0008061 272.6622 87.3557 14.30925684133348 SO-50 1 27607U 02058C 23166.60843298 .00001435 00000-0 21374-3 0 9998 2 27607 64.5546 269.7696 0069204 225.0292 134.5190 14.77312750101992 CO-55 1 27844U 03031E 23166.56188377 .00000369 00000-0 18364-3 0 9998 2 27844 98.6770 173.8425 0010845 126.2191 233.9992 14.22787403 35535 CO-57 1 27848U 03031J 23166.57241375 .00000323 00000-0 16509-3 0 9990 2 27848 98.6807 174.2694 0010503 139.8801 220.3154 14.22297351 35327 RS-22 1 27939U 03042A 23166.77211677 .00001233 00000-0 22174-3 0 9993 2 27939 98.2430 313.7218 0013421 137.3100 327.0561 14.68392512 54339 NOAA-18 1 28654U 05018A 23166.72082563 .00000221 00000-0 14233-3 0 9991 2 28654 98.9095 241.1183 0014618 28.7107 331.4867 14.12952619931366 CO-58 1 28895U 05043F 23166.29653545 .00001483 00000-0 28111-3 0 9993 2 28895 98.1535 298.3705 0017516 79.8367 280.4811 14.65663348940530 CO-65 1 32785U 08021C 23166.38663451 .00003714 00000-0 36864-3 0 9995 2 32785 97.7053 132.3795 0013948 107.2528 253.0218 14.92273823820550 AAUSAT2 1 32788U 08021F 23166.48715227 .00009375 00000-0 68440-3 0 9992 2 32788 97.5598 145.9420 0008026 14.3398 345.8055 15.03866247822859 DO-64 1 32789U 08021G 23166.53898803 .00053771 00000-0 15013-2 0 9997 2 32789 97.3019 188.0352 0009293 126.4395 233.7707 15.36498995827139 CO-66 1 32791U 08021J 23166.86839859 .00006041 00000-0 53295-3 0 9995 2 32791 97.6549 138.1310 0013816 62.3697 297.8926 14.96695334821546 RS-30 1 32953U 08025A 23166.67532620 .00000024 00000-0 10006-3 0 9992 2 32953 82.5025 318.0352 0019692 185.2358 174.8519 12.43125286683463 PRISM 1 33493U 09002B 23166.52754855 .00010296 00000-0 69987-3 0 9992 2 33493 98.2442 180.9285 0017170 56.5929 303.6936 15.06448361783497 NOAA-19 1 33591U 09005A 23166.69425615 .00000238 00000-0 15313-3 0 9990 2 33591 99.0993 212.5976 0012913 245.1053 114.8776 14.12769884739733 SRMSAT 1 37841U 11058D 23166.53889953 .00000442 00000-0 97517-4 0 9999 2 37841 19.9705 219.9930 0011935 14.5085 131.3625 14.10902168602574 HRBE 1 37855U 11061F 23166.43577896 .00029525 00000-0 92208-3 0 9991 2 37855 101.7054 127.1475 0119559 46.1063 314.9958 15.26389718636290 RS-40 1 38735U 12041C 23166.54347020 .00000029 00000-0 13825-3 0 9990 2 38735 82.4777 39.1165 0016688 303.0044 56.9431 12.42594379493517 ZACUBE-1 1 39417U 13066B 23166.41249469 .00002626 00000-0 30669-3 0 9990 2 39417 97.6846 128.1405 0053156 294.2055 65.3610 14.84988446516935 Delfi-N3xt 1 39428U 13066N 23166.34025728 .00002702 00000-0 39353-3 0 9998 2 39428 97.8338 91.2417 0110111 194.4894 165.3151 14.72600093511869 GOMX-1 1 39430U 13066Q 23166.75013128 .00002285 00000-0 40245-3 0 9995 2 39430 97.7808 57.9740 0145017 338.5820 20.9352 14.61840358509329 LO-74 1 39440U 13066AA 23166.41060451 .00003610 00000-0 46744-3 0 9993 2 39440 97.7720 115.2193 0076446 34.1958 326.4143 14.79413543513893 AO-73 1 39444U 13066AE 23166.44466480 .00004079 00000-0 45422-3 0 9994 2 39444 97.6708 130.7160 0051204 278.9698 80.5725 14.86689798515387 SPROUT 1 39770U 14029E 23166.36182749 .00015435 00000-0 11746-2 0 9999 2 39770 97.9876 293.5403 0005805 307.8318 52.2380 15.02189343491884 DTUSAT-2 1 40030U 14033W 23166.40509118 .00003291 00000-0 32147-3 0 9999 2 40030 97.9677 106.9195 0009282 303.2670 56.7659 14.93070048487730 EO-80 1 40032U 14033Y 23166.38086885 .00004262 00000-0 41463-3 0 9999 2 40032 97.9675 106.9124 0009141 304.4063 55.6291 14.93072444487704 HODOYOSHI-1 1 40299U 14070B 23166.73713196 .00009410 00000-0 29105-3 0 9995 2 40299 97.1944 229.4384 0008753 283.1687 76.8579 15.33666407478585 FIREBIRD FU3 1 40377U 15003B 23166.41868931 .00156968 00000-0 10522-2 0 9995 2 40377 99.0739 124.9555 0039126 202.2725 157.6836 15.73698368464367 FIREBIRD FU4 1 40378U 15003C 23166.61453108 .00167119 00000-0 11222-2 0 9992 2 40378 99.0762 125.5345 0039587 201.1440 158.8185 15.73606351464418 GRIFEX 1 40379U 15003D 23166.48223789 .00029864 00000-0 65025-3 0 9993 2 40379 99.0780 102.8255 0078787 276.8937 82.3346 15.40939774463121 XW-2C 1 40906U 15049H 23166.77967388 .00010971 00000-0 42328-3 0 9991 2 40906 97.4924 173.9115 0012604 158.4171 201.7601 15.26398518428181 XW-2D 1 40907U 15049J 23166.80031302 .00012644 00000-0 45968-3 0 9996 2 40907 97.4904 174.4605 0011986 151.2514 208.9388 15.28336460428275 LILACSAT-2 1 40908U 15049K 23166.77496972 .00005185 00000-0 24548-3 0 9994 2 40908 97.5238 169.8352 0013738 187.4151 172.6883 15.19706959427583 XW-2E 1 40909U 15049L 23166.75597211 .00027493 00000-0 72701-3 0 9991 2 40909 97.4515 180.6415 0010986 122.9923 237.2380 15.38319090428921 XW-2F 1 40910U 15049M 23166.68786433 .00026786 00000-0 72336-3 0 9999 2 40910 97.4609 179.8099 0011755 125.5748 234.6594 15.37665171428655 XW-2B 1 40911U 15049N 23166.79611037 .00012673 00000-0 46387-3 0 9996 2 40911 97.4883 174.8943 0011896 152.7961 207.3904 15.28112685428152 DCBB 1 40912U 15049P 23166.78030319 .00037263 00000-0 82018-3 0 9997 2 40912 97.4159 184.5328 0010981 93.5485 266.7019 15.43811117429397 IO-86 1 40931U 15052B 23165.39054716 .00001153 00000-0 70050-4 0 9998 2 40931 5.9995 106.4578 0013601 256.0970 103.7644 14.77237448416820 ATHENOXAT-1 1 41168U 15077C 23166.44085288 .00143116 00000-0 16906-2 0 9997 2 41168 14.9859 235.1517 0003788 66.3944 293.6781 15.59377532416048 ChubuSat-2 1 41338U 16012B 23166.48254310 .00003269 00000-0 22457-3 0 9997 2 41338 31.0016 228.7091 0012370 161.4056 198.7034 15.03986346402123 ChubuSat-3 1 41339U 16012C 23166.54348544 .00002952 00000-0 20296-3 0 9995 2 41339 31.0080 225.4294 0012296 169.4350 190.6546 15.03843931402127 Horyu-4 1 41340U 16012D 23166.46921211 .00005625 00000-0 35162-3 0 9994 2 41340 31.0023 194.3786 0011795 224.4847 135.4843 15.07875512402460 e-st@r-II 1 41459U 16025D 23166.77805423 .00031074 00000-0 89418-3 0 9999 2 41459 98.1859 7.9346 0107961 104.2857 257.0399 15.30013694392680 AAUSAT4 1 41460U 16025E 23166.59191526 .00109126 00000-0 14051-2 0 9997 2 41460 98.1596 20.3711 0057516 60.3042 300.3919 15.56668572393526 LO-87 1 41557U 16033B 23166.80294587 .00062032 00000-0 78161-3 0 9995 2 41557 97.3887 274.6354 0007222 147.0743 213.0964 15.59395991393417 NuSat2 1 41558U 16033C 23166.78946608 .00075319 00000-0 82006-3 0 9996 2 41558 97.4165 282.7165 0006532 142.2172 217.9546 15.63162097393754 Lapan A3 1 41603U 16040E 23166.74448763 .00002690 00000-0 11896-3 0 9991 2 41603 97.1655 192.3754 0011544 328.7991 31.2560 15.22455206387270 Pratham 1 41783U 16059A 23166.31418890 .00000806 00000-0 16129-3 0 9992 2 41783 97.8683 197.5119 0034494 105.9437 254.5572 14.63957773358707 TY-1 1 41844U 16066D 23166.77533458 .00055606 00000-0 86927-3 0 9997 2 41844 97.3667 186.0390 0009542 75.5294 284.7017 15.53557227367467 CAS-2T 1 41847U 16066G 23166.71040896 .00001506 00000-0 23310-3 0 9990 2 41847 98.5042 235.2704 0359404 201.7025 156.8602 14.39681750346598 EO-88 1 42017U 17008BX 23166.18290952 .00223115 00000-0 11768-2 0 9993 2 42017 97.2084 237.4476 0003162 224.8554 135.2459 15.80036635353154 CAS-4B 1 42759U 17034B 23166.74075719 .00007432 00000-0 37609-3 0 9994 2 42759 43.0141 123.7279 0009414 92.6122 267.5803 15.17394364331419 CAS-4A 1 42761U 17034D 23166.75687028 .00007473 00000-0 37795-3 0 9991 2 42761 43.0139 122.1684 0010067 94.9758 265.2240 15.17403231331423 NIUSat 1 42766U 17036B 23166.31058338 .00023303 00000-0 59799-3 0 9994 2 42766 97.1564 197.6602 0012237 109.9673 250.2892 15.39255086332325 Aalto 1 1 42775U 17036L 23166.31104146 .00015465 00000-0 45016-3 0 9990 2 42775 97.1519 196.4087 0011976 110.6063 249.6467 15.35427941332237 URSA MAIOR 1 42776U 17036M 23165.66037087 .00018065 00000-0 49454-3 0 9996 2 42776 97.1529 197.1072 0011618 110.5916 249.6576 15.37318813332207 Max Valier Sat 1 42778U 17036P 23166.54093962 .00020891 00000-0 54538-3 0 9999 2 42778 97.1549 201.4229 0010495 107.8875 252.3516 15.38769695332472 Pegasus 1 42784U 17036V 23166.33822762 .00035225 00000-0 69410-3 0 9993 2 42784 97.1468 203.7753 0008973 106.0863 254.1376 15.47093832332693 SUCHAI 1 1 42788U 17036Z 23166.17679736 .00065176 00000-0 89300-3 0 9998 2 42788 97.1443 207.3586 0007481 108.9789 251.2278 15.57142236332980 SKCUBE 1 42789U 17036AA 23166.05046260 .00046287 00000-0 77487-3 0 9991 2 42789 97.1441 205.6591 0008280 104.4662 255.7510 15.51701545332789 VENTA 1 1 42791U 17036AC 23166.55049675 .00036030 00000-0 70280-3 0 9991 2 42791 97.1485 205.1712 0008179 102.7859 257.4306 15.47390948332784 Robusta 1B 1 42792U 17036AD 23166.66125116 .00063723 00000-0 93738-3 0 9991 2 42792 97.1420 207.5087 0006762 104.5452 255.6553 15.55224081332978 D-SAT 1 42794U 17036AF 23166.73134061 .00004857 00000-0 38693-3 0 9992 2 42794 97.4641 158.8576 0114746 307.3247 51.7562 14.95723179325743 TechnoSat 1 42829U 17042E 23166.78259897 .00002084 00000-0 20217-3 0 9991 2 42829 97.3894 4.3107 0012157 225.6016 134.4210 14.93619052322282 AO-91 1 43017U 17073E 23166.23393264 .00007585 00000-0 52631-3 0 9998 2 43017 97.6319 50.6487 0235201 75.8675 286.8553 14.86060765300893 PICSAT 1 43132U 18004X 23166.76147196 .00082961 00000-0 10966-2 0 9995 2 43132 97.3293 249.9519 0005086 141.1539 219.0083 15.58056192302325 AO-92 1 43137U 18004AC 23166.19239062 .00029863 00000-0 61415-3 0 9999 2 43137 97.3292 245.3618 0006836 142.8337 217.3387 15.45899104302004 TianYi 2 1 43155U 18008A 23166.74271906 .00015684 00000-0 61953-3 0 9990 2 43155 97.2988 219.2964 0011260 317.3129 42.7234 15.25537391298431 Zhou Enlai 1 43156U 18008B 23166.75324406 .00018288 00000-0 70987-3 0 9996 2 43156 97.3035 219.4189 0008925 318.6655 41.3907 15.26108557298362 TianYi 6 1 43158U 18008D 23166.62151709 .00013516 00000-0 57743-3 0 9992 2 43158 97.3037 216.2368 0009065 324.1072 35.9555 15.22948911298181 S-Net D 1 43186U 18014G 23166.51561289 .00002619 00000-0 21239-3 0 9999 2 43186 97.6310 70.3553 0015947 165.6513 194.5167 15.00447688293309 S-Net B 1 43187U 18014H 23166.31664709 .00002532 00000-0 20553-3 0 9991 2 43187 97.6302 70.0884 0016159 164.3335 195.8392 15.00437101293278 S-Net A 1 43188U 18014J 23166.71690293 .00002670 00000-0 21644-3 0 9998 2 43188 97.6307 70.5688 0016193 163.2739 196.9022 15.00442543293330 S-Net C 1 43189U 18014K 23166.51905808 .00002764 00000-0 22390-3 0 9991 2 43189 97.6296 70.2637 0016524 159.7700 200.4183 15.00427640291850 Shaonian Xing 1 43199U 18015H 23166.42326200 .00168654 00000-0 10345-2 0 9993 2 43199 97.5419 326.0132 0007221 194.8267 165.2788 15.76764648299549 CubeBel-1 1 43666U 18083E 23166.77225404 .00030692 00000-0 82103-3 0 9991 2 43666 97.3799 198.3645 0011588 124.6766 235.5572 15.37932068256985 Changshagaoxin 1 43669U 18083H 23166.73827979 .00023858 00000-0 71443-3 0 9996 2 43669 97.3788 192.9689 0009507 123.9930 236.2217 15.34476403256726 Ten-Koh 1 43677U 18084G 23166.33886507 .00002877 00000-0 28173-3 0 9994 2 43677 98.0128 306.1929 0015918 150.4404 209.7717 14.93023129251789 PO-101 1 43678U 18084H 23166.71470904 .00001163 00000-0 11638-3 0 9992 2 43678 98.0227 310.6540 0009991 159.2146 200.9481 14.93423449252043 QO-100 1 43700U 18090A 23166.28803855 .00000148 00000-0 00000-0 0 9992 2 43700 0.0179 329.6826 0001666 155.4195 267.7211 1.00274582 16662 Reaktor Hello World 1 43743U 18096AA 23166.71623374 .00062671 00000-0 82605-3 0 9992 2 43743 97.3180 253.6900 0010456 182.1567 177.9646 15.58160254253942 MinXSS-2 1 43758U 18099A 23166.72568420 .00006710 00000-0 52026-3 0 9998 2 43758 97.6033 230.8523 0017977 127.3690 232.9175 15.01588934247522 AO-95 1 43770U 18099N 23166.15727749 .00004152 00000-0 33958-3 0 9991 2 43770 97.5706 227.7507 0013143 142.7938 217.4199 14.99812498247307 RANGE-B 1 43772U 18099Q 23166.23104591 .00005592 00000-0 43578-3 0 9994 2 43772 97.5784 230.5832 0009834 105.5344 254.6966 15.01553405247374 RANGE-A 1 43773U 18099R 23166.39909426 .00002758 00000-0 23506-3 0 9992 2 43773 97.5660 226.0730 0014176 119.1392 241.1252 14.98483535247295 MOVE-II 1 43780U 18099Y 23166.17415559 .00007988 00000-0 58612-3 0 9991 2 43780 97.5729 230.2423 0010332 151.0527 209.1274 15.03704104247439 SNUSat 2 1 43782U 18099AA 23166.72278517 .00005236 00000-0 42767-3 0 9993 2 43782 97.5741 228.8083 0015103 113.6648 246.6162 14.99727449247410 SnugLite 1 43784U 18099AC 23166.40676701 .00004052 00000-0 32718-3 0 9997 2 43784 97.5746 228.1784 0011208 125.7838 234.4429 15.00338757247408 ITASat 1 1 43786U 18099AE 23166.15901287 .00003406 00000-0 28169-3 0 9998 2 43786 97.5748 228.7856 0013742 130.4478 229.7946 14.99491662247342 EAGLET 1 1 43790U 18099AJ 23166.73393317 .00003799 00000-0 31678-3 0 9990 2 43790 97.5776 229.8118 0014580 123.7945 236.4669 14.99100226247166 ESEO 1 43792U 18099AL 23166.75746628 .00001576 00000-0 13942-3 0 9996 2 43792 97.5691 228.3133 0013612 127.1847 233.0621 14.97632407247170 CSIM 1 43793U 18099AM 23166.73581874 .00009410 00000-0 68018-3 0 9994 2 43793 97.5763 232.1111 0017212 130.6689 229.6036 15.04146235247363 Astrocast 0.1 1 43798U 18099AS 23166.40949220 .00007538 00000-0 56971-3 0 9990 2 43798 97.5826 231.1415 0013094 110.0717 250.1918 15.02579617247508 JO-97 1 43803U 18099AX 23166.44863941 .00005581 00000-0 44275-3 0 9996 2 43803 97.5706 229.0595 0015036 98.1889 262.1041 15.00824174247432 Suomi 100 1 43804U 18099AY 23166.44472540 .00005124 00000-0 40998-3 0 9999 2 43804 97.5674 228.8620 0019546 114.3101 246.0167 15.00473066247431 Al Farabi 2 1 43805U 18099AZ 23166.12281694 .00007129 00000-0 54455-3 0 9993 2 43805 97.5615 229.5741 0013033 110.7288 249.5335 15.02194135247445 CHOMPTT 1 43855U 18104G 23166.48284799 .00021295 00000-0 52643-3 0 9990 2 43855 85.0290 167.3164 0009747 338.8760 21.2088 15.40292320250311 ISAT 1 43879U 18111D 23166.29716736 .00005328 00000-0 40634-3 0 9990 2 43879 97.6421 70.7799 0014663 164.3991 195.7689 15.02359538244055 UWE-4 1 43880U 18111E 23166.22540855 .00005530 00000-0 42328-3 0 9999 2 43880 97.6333 71.4335 0018192 177.3368 182.7957 15.02160875244076 Sparrow 1 43881U 18111F 23166.30476856 .00004876 00000-0 36909-3 0 9998 2 43881 97.6484 72.1301 0010351 206.2075 153.8628 15.02732945244102 Lume 1 1 43908U 18111AJ 23166.65705409 .00029441 00000-0 59427-3 0 9990 2 43908 97.1406 49.9397 0012195 193.2590 166.8341 15.46390444249151 FO-99 1 43937U 19003F 23166.74730233 .00050737 00000-0 81726-3 0 9995 2 43937 97.0849 193.9720 0009313 272.6488 87.3699 15.52748732245826 AstroCast 0.2 1 44083U 19018F 23166.74351649 .00042194 00000-0 74868-3 0 9991 2 44083 97.2662 226.5133 0004476 226.5122 133.5758 15.50103758234192 AISTechSat 3 1 44103U 19018AB 23166.72357923 .00023350 00000-0 56698-3 0 9997 2 44103 97.2535 225.1902 0007123 272.3302 87.7129 15.40992660234283 AISat 1 1 44104U 19018AC 23166.71434838 .00016455 00000-0 32092-3 0 9998 2 44104 97.3742 258.0300 0039246 262.5368 97.1422 15.46730906235490 Prox-1 1 44339U 19036A 23166.11341037 .00005586 00000-0 11102-2 0 9991 2 44339 24.0017 57.7225 0009939 241.3296 118.6197 14.59408825211298 Move-IIb 1 44398U 19038N 23166.47389846 .00048345 00000-0 11918-2 0 9992 2 44398 97.6583 149.2042 0010042 298.7525 61.2711 15.40356369218400 SONATE 1 44400U 19038Q 23166.45547464 .00008387 00000-0 37660-3 0 9991 2 44400 97.6828 144.0650 0019103 322.5709 37.4194 15.21271770217973 BeeSat 9 1 44412U 19038AC 23166.51052266 .00021295 00000-0 73530-3 0 9991 2 44412 97.6730 147.0933 0013212 317.1495 42.8714 15.29893361217907 JAISAT-1 1 44419U 19038F 23166.46061473 .00019710 00000-0 67465-3 0 9991 2 44419 97.6726 148.1237 0012287 313.5437 46.4781 15.30207039218273 Taurus 1 1 44530U 19059C 23166.76458343 .00003395 00000-0 88569-3 0 9997 2 44530 98.5553 274.5425 0014398 99.6903 260.5917 14.50081981198435 Duchifat 3 1 44854U 19089C 23166.21811920 .00006817 00000-0 46065-3 0 9990 2 44854 36.9617 103.0538 0010342 295.3251 64.6421 15.06207171192607 OPS-SAT 1 44878U 19092F 23166.49715415 .00021602 00000-0 64697-3 0 9992 2 44878 97.4746 355.2246 0010189 138.0501 222.1524 15.34486789193538 TO-108 1 44881U 19093C 23166.74441076 .00000985 00000-0 12888-3 0 9990 2 44881 97.8617 245.2200 0016167 83.9181 276.3874 14.82534403188582 FloripaSat 1 1 44885U 19093G 23166.73195082 .00003194 00000-0 37279-3 0 9992 2 44885 97.8685 247.9090 0015055 86.6529 273.6409 14.85801895188734 RS-44 1 44909U 19096E 23166.73707939 .00000033 00000-0 86685-4 0 9997 2 44909 82.5216 348.9092 0217277 190.0898 169.5807 12.79721174162026 BY70-2 1 45857U 20042B 23166.80033374 .00015252 00000-0 15683-2 0 9993 2 45857 97.9262 246.6925 0007878 20.4408 339.7123 14.90398444159333 UPMSat 2 1 46276U 20061E 23166.18156225 .00006840 00000-0 29012-3 0 9997 2 46276 97.3470 233.8039 0001458 52.3577 307.7792 15.23425407153986 AmicalSat 1 46287U 20061R 23166.16782294 .00009464 00000-0 44200-3 0 9999 2 46287 97.4008 232.7141 0003740 103.0171 257.1482 15.20017367153408 SALSAT 1 46495U 20068K 23166.39531447 .00004115 00000-0 27300-3 0 9994 2 46495 97.7702 114.3786 0017043 122.7780 237.5092 15.07714327148800 CAPE 3 1 47309U 21002A 23166.29508102 .00026463 00000-0 63927-3 0 9994 2 47309 60.6782 67.3147 0012581 190.3553 169.7285 15.41029502133997 AO-109 1 47311U 21002C 23166.09936901 .00021475 00000-0 55910-3 0 9998 2 47311 60.6819 66.5673 0012457 179.0661 181.0459 15.38855385133961 ExoCube 2 1 47319U 21002L 23166.55315021 .00021342 00000-0 56950-3 0 9999 2 47319 60.6800 66.9737 0012648 184.9155 175.1817 15.38097523133963 UVSQ-SAT 1 47438U 21006AB 23166.12756019 .00012698 00000-0 52073-3 0 9990 2 47438 97.3848 223.2633 0011400 92.6527 267.6015 15.24327299132338 YUSAT 1 1 47439U 21006AC 23166.74640698 .00017514 00000-0 66534-3 0 9993 2 47439 97.3853 224.6237 0010712 89.9084 270.3382 15.26820252132474 SOMP 2b 1 47445U 21006AJ 23166.70622740 .00013418 00000-0 56197-3 0 9997 2 47445 97.3814 223.0879 0011236 94.8642 265.3878 15.23605322132391 IDEASSat 1 47458U 21006AX 23166.16139733 .00011284 00000-0 48181-3 0 9999 2 47458 97.3912 223.3311 0010694 96.2552 263.9903 15.22999222132297 CubeSX-Sirius-HSE 1 47951U 21022V 23166.75398636 .00007931 00000-0 44619-3 0 9995 2 47951 97.4983 64.1324 0018148 345.9116 14.1607 15.13389632122813 CubeSX-HSE 1 47952U 21022W 23166.66116273 .00009324 00000-0 52284-3 0 9996 2 47952 97.4983 64.0880 0018047 345.4651 14.6059 15.13454843122809 KSU-Cubesat 1 47954U 21022Y 23166.51580075 .00009238 00000-0 50607-3 0 9998 2 47954 97.4992 64.3185 0017367 345.4705 14.6025 15.14304130122522 GRBAlpha 1 47959U 21022AD 23166.78011834 .00008712 00000-0 48771-3 0 9999 2 47959 97.4990 64.2874 0017863 345.8122 14.2606 15.13538092121645 Orbicraft-Zorkiy 1 47960U 21022AE 23166.73809628 .00009712 00000-0 53306-3 0 9993 2 47960 97.5015 64.6705 0017525 344.6009 15.4687 15.14219808122341 STECCO 1 47962U 21022AG 23166.74907561 .00016676 00000-0 77273-3 0 9997 2 47962 97.4985 67.0447 0011501 336.1918 23.8783 15.20102384121820 DO-111 1 47963U 21022AH 23166.71672525 .00226636 00000-0 25529-2 0 9999 2 47963 97.4952 75.2691 0002545 152.0994 208.0400 15.61798468122366 MO-110 1 47964U 21022AJ 23166.27308582 .00016523 00000-0 74774-3 0 9999 2 47964 97.4999 67.1666 0013327 331.6373 28.4135 15.20898633121780 FEES 1 48082U 21022AL 23166.49550973 .00030197 00000-0 11302-2 0 9998 2 48082 97.4988 68.6221 0008235 326.9200 33.1523 15.27222750121604 TUBIN 1 48900U 21059X 23166.70642752 .00007258 00000-0 34591-3 0 9996 2 48900 97.5996 300.2955 0007752 288.0472 71.9918 15.19395546108950 IT-SPINS 1 49017U 21013G 23166.21134489 .00028036 00000-0 64743-3 0 9994 2 49017 51.5915 88.4093 0005282 336.4075 23.6667 15.42295338109402 LEDSAT 1 49069U 21073D 23166.73289887 .00008353 00000-0 45822-3 0 9994 2 49069 97.4831 237.6310 0025504 124.2585 236.1068 15.14130092100684 CUTE 1 49263U 21088D 23166.76234571 .00006753 00000-0 43464-3 0 9991 2 49263 97.5446 232.5854 0016116 265.6229 94.3159 15.08586978 94075 TeikyoSat 4 1 49396U 21102B 23166.46625623 .00001709 00000-0 13361-3 0 9993 2 49396 97.5153 218.5125 0017812 89.7252 270.6014 15.02243786 87518 Z-Sat 1 49399U 21102E 23166.75536737 .00003585 00000-0 25647-3 0 9999 2 49399 97.4852 219.8955 0023415 76.1169 284.2660 15.04836348 87673 KOSEN 1 1 49402U 21102H 23166.69833206 .00004880 00000-0 33189-3 0 9997 2 49402 97.4774 220.3478 0022096 65.5714 294.7816 15.06587340 87733 HO-113 1 50466U 21131B 23166.77902888 .00000569 00000-0 19903-3 0 9991 2 50466 98.5519 248.3282 0005220 134.4916 225.6699 14.38920745 77158 Tevel-3 1 50988U 22002E 23166.73571092 .00017449 00000-0 70029-3 0 9994 2 50988 97.4339 233.7101 0007006 228.4268 131.6370 15.25019215 78545 Tevel-8 1 50989U 22002F 23166.75439525 .00017121 00000-0 68857-3 0 9994 2 50989 97.4355 233.7879 0007032 227.5341 132.5303 15.24953122 78546 Tevel-5 1 50998U 22002Q 23166.74671408 .00017890 00000-0 70033-3 0 9993 2 50998 97.4332 234.1027 0008319 223.6572 136.4009 15.25839767 78571 Tevel-6 1 50999U 22002R 23166.74523844 .00017305 00000-0 67760-3 0 9998 2 50999 97.4331 234.0958 0008312 223.5672 136.4910 15.25838669 78577 Tevel-1 1 51013U 22002AF 23166.74546833 .00017259 00000-0 69371-3 0 9997 2 51013 97.4333 233.6631 0006931 227.8982 132.1667 15.24973098 78540 Grizu-263a 1 51025U 22002AT 23166.73069428 .00078658 00000-0 16484-2 0 9995 2 51025 97.4476 239.2487 0008654 212.6146 147.4569 15.45095234 78832 NO-116 1 51031U 22002AZ 23166.61347684 .00031603 00000-0 10058-2 0 9992 2 51031 97.4459 236.5175 0009124 223.7041 136.3479 15.32484365 78665 IRIS-A 1 51044U 22002BN 23166.75630150 .00007782 00000-0 37099-3 0 9990 2 51044 97.4351 232.2341 0007006 236.6085 123.4480 15.19355283 78442 Tevel-7 1 51062U 22002CG 23166.75541019 .00016815 00000-0 67601-3 0 9994 2 51062 97.4349 233.7619 0007036 226.5949 133.4703 15.24970358 78545 Tevel-4 1 51063U 22002CH 23166.76143899 .00016399 00000-0 66040-3 0 9993 2 51063 97.4351 233.7517 0007000 226.6447 133.4208 15.24919032 78543 Tevel-2 1 51069U 22002CP 23166.73754243 .00017351 00000-0 69636-3 0 9990 2 51069 97.4335 233.6833 0006994 227.9207 132.1436 15.25021274 78542 DELFI-PQ 1 51074U 22002CU 23166.17603255 .00033108 00000-0 94874-3 0 9990 2 51074 97.4596 238.4448 0008754 250.1497 109.8804 15.35803891 78697 SO-115 1 51080U 22002DA 23165.63381831 .00017461 00000-0 62841-3 0 9993 2 51080 97.4615 236.3592 0009178 262.7506 97.2690 15.28621165 78501 SO-114 1 51081U 22002DB 23166.14561172 .00019819 00000-0 70854-3 0 9991 2 51081 97.4609 236.8442 0009497 261.1693 98.8471 15.28809478 78585 OreSat0 1 52017U 22026K 23166.53334466 .00015484 00000-0 62122-3 0 9997 2 52017 97.5080 168.9189 0024605 90.9566 269.4491 15.24797504 69295 Planetum 1 1 52738U 22057G 23166.30609793 .00009807 00000-0 45498-3 0 9993 2 52738 97.5381 282.2663 0006491 5.5947 354.5359 15.20235679 58376 Foresail-1 1 52766U 22057AL 23166.74420213 .00008213 00000-0 39048-3 0 9994 2 52766 97.5500 283.5978 0011293 340.6662 19.4142 15.19404720 58466 SNUGLITE 2 1 52899U 22065F 23166.36782006 .00001067 00000-0 23524-3 0 9991 2 52899 98.0689 311.2600 0007249 214.2086 145.8648 14.59301667 50590 CTIM 1 52950U 22074G 23165.86156344 .00043458 00000-0 96774-3 0 9990 2 52950 44.9988 12.3018 0013853 218.3649 141.6256 15.42884282 53246 IO-117 1 53106U 22080B 23164.78366827 -.00000003 00000-0 00000+0 0 9993 2 53106 70.1624 320.9023 0008461 186.0509 174.0049 6.42557024 21535 AstroBioCubeSat 1 53107U 22080C 23025.30817895 -.00000003 00000-0 00000-0 0 9995 2 53107 70.1710 9.4734 0013545 210.3158 149.6718 6.42110537 12478 SelfieSat 1 53951U 22057BC 23166.27472839 .00013965 00000-0 61571-3 0 9996 2 53951 97.5426 282.8655 0008079 353.9786 6.1351 15.21883198 58396 FO-118 1 54684U 22167C 23166.75442563 .00008817 00000-0 48845-3 0 9995 2 54684 97.5618 304.3412 0012770 344.7278 15.3566 15.13979574 28461 KILICSAT 1 56181U 23054D 23166.73597466 .00010573 00000-0 45723-3 0 9990 2 56181 97.4057 61.6416 0010959 49.6375 310.5817 15.22582805 9953 SSS-2B 1 56184U 23054G 23166.73078943 .00012427 00000-0 53394-3 0 9990 2 56184 97.4119 61.6991 0012310 48.8488 311.3809 15.22745784 9959 CIRBE 1 56188U 23054L 23166.51962156 .00013058 00000-0 55347-3 0 9999 2 56188 97.4072 61.4836 0011057 44.7397 315.4730 15.23209058 9923 INSPIRE-Sat 7 1 56211U 23054AK 23166.52575457 .00015330 00000-0 61775-3 0 9998 2 56211 97.4100 61.6500 0015202 26.7173 333.4845 15.24826223 9938 RoseyCubesat 1 1 56212U 23054AL 23166.65020654 .00016173 00000-0 64687-3 0 9998 2 56212 97.4106 61.7937 0015527 25.7311 334.4696 15.25061067 9958 ARKSAT 1 1 56311U 98067VC 23166.51366425 .00056954 00000-0 78117-3 0 9992 2 56311 51.6386 335.4078 0003755 87.5689 272.5733 15.56784171 8103 AuroraSat 1 56312U 98067VD 23166.50586142 .00069777 00000-0 92801-3 0 9995 2 56312 51.6377 335.3539 0002844 79.9658 280.1654 15.57528200 8134 Ex-Alta 2 1 56313U 98067VE 23166.51390866 .00057166 00000-0 78335-3 0 9998 2 56313 51.6377 335.4071 0003569 85.8276 274.3123 15.56808351 8126 LightCube 1 56314U 98067VF 23166.70179485 .00065119 00000-0 87177-3 0 9993 2 56314 51.6376 334.4107 0003735 52.6026 307.5306 15.57378759 8188 NEUDOSE 1 56315U 98067VG 23166.47820626 .00042053 00000-0 61415-3 0 9997 2 56315 51.6382 335.9168 0005405 69.5091 290.6480 15.55208587 8098 YukonSat 1 56316U 98067VH 23165.88837407 .00048247 00000-0 68462-3 0 9997 2 56316 51.6384 338.7284 0004673 62.2991 297.8475 15.55933524 8028 SNIPE 4 1 56744U 23072B 23166.54694296 .00005577 00000-0 37296-3 0 9997 2 56744 97.5502 353.4750 0007851 219.9818 140.0833 15.07328858 3180 SNIPE 2 1 56745U 23072C 23166.81061207 .00005920 00000-0 39419-3 0 9999 2 56745 97.5511 353.7401 0008097 223.0464 137.0131 15.07466015 3223 /EX